Time,TemperatureF,DewpointF,PressureIn,WindDirection,WindDirectionDegrees,WindSpeedMPH,WindSpeedGustMPH,Humidity,HourlyPrecipIn,Conditions,Clouds,dailyrainin,SoftwareType,DateUTC
2013-02-21 00:01:00,17.0,17.0,-100.00,NE,44,1.0,4.0,99,0.00,,,-99.99,,2013-02-21 07:01:00,
2013-02-21 00:11:00,17.0,17.0,-100.00,North,8,0.0,0.0,99,0.00,,,-99.99,,2013-02-21 07:11:00,
2013-02-21 00:21:00,17.0,17.0,-100.00,NW,306,0.0,0.0,99,0.00,,,-99.99,,2013-02-21 07:21:00,
2013-02-21 00:32:00,17.0,17.0,-100.00,South,181,0.0,0.0,99,0.00,,,-99.99,,2013-02-21 07:32:00,
2013-02-21 00:42:00,17.0,17.0,-100.00,SSW,192,0.0,0.0,99,0.00,,,-99.99,,2013-02-21 07:42:00,
2013-02-21 00:52:00,17.0,17.0,-100.00,SE,133,1.0,3.0,99,0.00,,,-99.99,,2013-02-21 07:52:00,
2013-02-21 01:01:00,17.0,17.0,-100.00,ENE,61,2.0,4.0,98,0.00,,,-99.99,,2013-02-21 08:01:00,
2013-02-21 01:11:00,17.0,17.0,-100.00,East,93,0.0,3.0,98,0.00,,,-99.99,,2013-02-21 08:11:00,
2013-02-21 01:21:00,17.0,16.0,-100.00,ESE,123,1.0,4.0,98,0.00,,,-99.99,,2013-02-21 08:21:00,
2013-02-21 01:32:00,17.0,17.0,-100.00,SE,126,1.0,4.0,98,0.00,,,-99.99,,2013-02-21 08:32:00,
2013-02-21 01:41:00,17.0,17.0,-100.00,SE,144,1.0,4.0,98,0.00,,,-99.99,,2013-02-21 08:41:00,
2013-02-21 01:52:00,17.0,17.0,-100.00,SE,128,2.0,6.0,99,0.00,,,-99.99,,2013-02-21 08:52:00,
2013-02-21 02:01:00,17.0,17.0,-100.00,East,79,3.0,6.0,99,0.00,,,-99.99,,2013-02-21 09:01:00,
2013-02-21 02:11:00,17.0,17.0,-100.00,ENE,61,3.0,5.0,99,0.00,,,-99.99,,2013-02-21 09:11:00,
2013-02-21 02:22:00,17.0,17.0,-100.00,ENE,66,3.0,5.0,99,0.00,,,-99.99,,2013-02-21 09:22:00,
2013-02-21 02:31:00,17.0,17.0,-100.00,NE,54,2.0,6.0,99,0.00,,,-99.99,,2013-02-21 09:31:00,
2013-02-21 02:41:00,17.0,17.0,-100.00,East,79,1.0,3.0,99,0.00,,,-99.99,,2013-02-21 09:41:00,
2013-02-21 02:51:00,17.0,17.0,-100.00,NE,40,3.0,6.0,99,0.00,,,-99.99,,2013-02-21 09:51:00,
2013-02-21 03:01:00,17.0,16.0,-100.00,NE,38,4.0,6.0,98,0.00,,,-99.99,,2013-02-21 10:01:00,
2013-02-21 03:11:00,17.0,16.0,-100.00,NNE,31,4.0,6.0,98,0.00,,,-99.99,,2013-02-21 10:11:00,
2013-02-21 03:21:00,16.0,16.0,-100.00,NNE,27,4.0,6.0,98,0.00,,,-99.99,,2013-02-21 10:21:00,
2013-02-21 03:31:00,16.0,16.0,-100.00,NE,37,4.0,6.0,98,0.00,,,-99.99,,2013-02-21 10:31:00,
2013-02-21 03:41:00,16.0,16.0,-100.00,NE,41,3.0,6.0,98,-99.99,,,-99.99,,2013-02-21 10:41:00,
2013-02-21 03:51:00,16.0,16.0,-100.00,NE,45,3.0,5.0,98,-99.99,,,-99.99,,2013-02-21 10:51:00,
2013-02-21 04:01:00,16.0,15.0,-100.00,NE,54,3.0,6.0,98,-99.99,,,-99.99,,2013-02-21 11:01:00,
2013-02-21 04:11:00,16.0,15.0,-100.00,NNE,27,2.0,4.0,98,-99.99,,,-99.99,,2013-02-21 11:11:00,
2013-02-21 04:21:00,16.0,15.0,-100.00,NNE,25,3.0,5.0,98,-99.99,,,-99.99,,2013-02-21 11:21:00,
2013-02-21 04:31:00,16.0,15.0,-100.00,NNE,31,3.0,6.0,98,-99.99,,,-99.99,,2013-02-21 11:31:00,
2013-02-21 04:41:00,16.0,15.0,-100.00,NNE,30,3.0,7.0,98,-99.99,,,-99.99,,2013-02-21 11:41:00,
2013-02-21 04:51:00,15.0,15.0,-100.00,NNE,27,4.0,6.0,98,-99.99,,,-99.99,,2013-02-21 11:51:00,
2013-02-21 05:01:00,15.0,14.0,-100.00,NNE,23,4.0,6.0,97,-99.99,,,-99.99,,2013-02-21 12:01:00,
2013-02-21 05:11:00,15.0,14.0,-100.00,NNE,24,2.0,6.0,98,-99.99,,,-99.99,,2013-02-21 12:11:00,
2013-02-21 05:21:00,15.0,14.0,-100.00,NNE,17,2.0,6.0,97,-99.99,,,-99.99,,2013-02-21 12:21:00,
2013-02-21 05:32:00,14.0,14.0,-100.00,North,7,2.0,5.0,97,-99.99,,,-99.99,,2013-02-21 12:32:00,
2013-02-21 05:42:00,14.0,14.0,-100.00,North,360,1.0,3.0,98,-99.99,,,-99.99,,2013-02-21 12:42:00,
2013-02-21 05:52:00,14.0,14.0,-100.00,North,354,0.0,3.0,97,-99.99,,,-99.99,,2013-02-21 12:52:00,
2013-02-21 06:01:00,14.0,14.0,-100.00,North,356,0.0,1.0,97,-99.99,,,-99.99,,2013-02-21 13:01:00,
2013-02-21 06:12:00,15.0,14.0,-100.00,North,360,0.0,2.0,97,-99.99,,,-99.99,,2013-02-21 13:12:00,
2013-02-21 06:22:00,14.0,14.0,-100.00,North,6,0.0,1.0,97,-99.99,,,-99.99,,2013-02-21 13:22:00,
2013-02-21 06:32:00,14.0,14.0,-100.00,North,352,0.0,0.0,97,-99.99,,,-99.99,,2013-02-21 13:32:00,
2013-02-21 06:41:00,15.0,14.0,-100.00,NNW,344,0.0,3.0,97,-99.99,,,-99.99,,2013-02-21 13:41:00,
2013-02-21 06:51:00,14.0,14.0,-100.00,NW,325,0.0,0.0,97,-99.99,,,-99.99,,2013-02-21 13:51:00,
2013-02-21 07:02:00,14.0,14.0,-100.00,NNW,339,1.0,4.0,97,-99.99,,,-99.99,,2013-02-21 14:02:00,
2013-02-21 07:11:00,14.0,14.0,-100.00,NNW,333,1.0,4.0,97,-99.99,,,-99.99,,2013-02-21 14:11:00,
2013-02-21 07:21:00,14.0,14.0,-100.00,NNW,333,0.0,4.0,97,-99.99,,,-99.99,,2013-02-21 14:21:00,
2013-02-21 07:32:00,14.0,14.0,-100.00,NNW,329,2.0,5.0,97,0.01,,,-99.99,,2013-02-21 14:32:00,
2013-02-21 07:41:00,14.0,14.0,-100.00,NW,326,2.0,6.0,97,0.03,,,-99.99,,2013-02-21 14:41:00,
2013-02-21 07:52:00,14.0,14.0,-100.00,NNW,329,2.0,6.0,97,0.03,,,-99.99,,2013-02-21 14:52:00,
2013-02-21 08:01:00,14.0,14.0,-100.00,NNW,336,1.0,6.0,97,0.01,,,-99.99,,2013-02-21 15:01:00,
2013-02-21 08:12:00,14.0,14.0,-100.00,NNW,335,1.0,6.0,97,0.01,,,-99.99,,2013-02-21 15:12:00,
2013-02-21 08:21:00,14.0,14.0,-100.00,NNW,335,2.0,6.0,97,0.01,,,-99.99,,2013-02-21 15:21:00,
2013-02-21 08:32:00,15.0,14.0,-100.00,NNW,337,2.0,6.0,97,0.04,,,-99.99,,2013-02-21 15:32:00,
2013-02-21 08:42:00,15.0,14.0,-100.00,NNW,337,2.0,5.0,97,0.06,,,-99.99,,2013-02-21 15:42:00,
2013-02-21 08:51:00,15.0,14.0,-100.00,NNW,332,1.0,5.0,97,0.01,,,-99.99,,2013-02-21 15:51:00,
2013-02-21 09:01:00,15.0,14.0,-100.00,NNW,335,2.0,6.0,97,0.06,,,-99.99,,2013-02-21 16:01:00,
2013-02-21 09:12:00,15.0,14.0,-100.00,NNW,340,4.0,7.0,97,0.11,,,-99.99,,2013-02-21 16:12:00,
2013-02-21 09:21:00,14.0,14.0,-100.00,NNW,340,4.0,7.0,97,0.06,,,-99.99,,2013-02-21 16:21:00,
2013-02-21 09:32:00,15.0,14.0,-100.00,NNW,337,4.0,7.0,97,0.06,,,-99.99,,2013-02-21 16:32:00,
2013-02-21 09:42:00,15.0,14.0,-100.00,NNW,332,4.0,7.0,97,0.06,,,-99.99,,2013-02-21 16:42:00,
2013-02-21 09:52:00,15.0,14.0,-100.00,NNW,333,4.0,7.0,97,0.04,,,-99.99,,2013-02-21 16:52:00,
2013-02-21 10:01:00,15.0,14.0,-100.00,NW,326,4.0,7.0,97,0.03,,,-99.99,,2013-02-21 17:01:00,
2013-02-21 10:11:00,15.0,14.0,-100.00,NW,320,5.0,7.0,97,0.03,,,-99.99,,2013-02-21 17:11:00,
2013-02-21 10:21:00,15.0,14.0,-100.00,NW,322,6.0,7.0,97,0.04,,,-99.99,,2013-02-21 17:21:00,
2013-02-21 10:32:00,15.0,14.0,-100.00,NW,320,6.0,9.0,97,0.01,,,-99.99,,2013-02-21 17:32:00,
2013-02-21 10:42:00,15.0,15.0,-100.00,NW,323,6.0,9.0,97,0.06,,,-99.99,,2013-02-21 17:42:00,
2013-02-21 10:52:00,15.0,14.0,-100.00,NW,323,7.0,9.0,97,0.01,,,-99.99,,2013-02-21 17:52:00,
2013-02-21 11:02:00,15.0,14.0,-100.00,NW,322,7.0,9.0,97,0.07,,,-99.99,,2013-02-21 18:02:00,
2013-02-21 11:11:00,15.0,14.0,-100.00,NNW,332,7.0,9.0,97,0.03,,,-99.99,,2013-02-21 18:11:00,
2013-02-21 11:22:00,15.0,14.0,-100.00,NNW,329,6.0,9.0,97,0.03,,,-99.99,,2013-02-21 18:22:00,
2013-02-21 11:31:00,15.0,14.0,-100.00,NNW,333,7.0,9.0,97,0.04,,,-99.99,,2013-02-21 18:31:00,
2013-02-21 11:42:00,15.0,14.0,-100.00,NNW,332,6.0,7.0,97,0.03,,,-99.99,,2013-02-21 18:42:00,
2013-02-21 11:51:00,15.0,14.0,-100.00,NNW,335,6.0,7.0,97,0.01,,,-99.99,,2013-02-21 18:51:00,
2013-02-21 12:01:00,15.0,15.0,-100.00,NNW,329,4.0,7.0,98,0.04,,,-99.99,,2013-02-21 19:01:00,
2013-02-21 12:12:00,15.0,14.0,-100.00,NW,318,6.0,7.0,97,0.00,,,-99.99,,2013-02-21 19:12:00,
2013-02-21 12:21:00,15.0,14.0,-100.00,NW,311,7.0,9.0,97,0.00,,,-99.99,,2013-02-21 19:21:00,
2013-02-21 12:31:00,15.0,15.0,-100.00,NW,312,7.0,9.0,97,0.00,,,-99.99,,2013-02-21 19:31:00,
2013-02-21 12:41:00,15.0,15.0,-100.00,NW,312,7.0,10.0,97,0.00,,,-99.99,,2013-02-21 19:41:00,
2013-02-21 12:51:00,16.0,15.0,-100.00,NW,315,7.0,10.0,98,0.01,,,-99.99,,2013-02-21 19:51:00,
2013-02-21 13:01:00,16.0,15.0,-100.00,NW,316,7.0,10.0,97,0.00,,,-99.99,,2013-02-21 20:01:00,
2013-02-21 13:11:00,16.0,16.0,-100.00,NW,316,7.0,10.0,98,0.01,,,-99.99,,2013-02-21 20:11:00,
2013-02-21 13:21:00,16.0,15.0,-100.00,NW,316,8.0,11.0,97,0.00,,,-99.99,,2013-02-21 20:21:00,
2013-02-21 13:32:00,16.0,15.0,-100.00,NW,315,8.0,12.0,97,0.00,,,-99.99,,2013-02-21 20:32:00,
2013-02-21 13:41:00,16.0,16.0,-100.00,NW,312,9.0,12.0,97,0.00,,,-99.99,,2013-02-21 20:41:00,
2013-02-21 13:52:00,16.0,15.0,-100.00,NW,315,11.0,15.0,97,0.00,,,-99.99,,2013-02-21 20:52:00,
2013-02-21 14:02:00,16.0,15.0,-100.00,NW,315,11.0,14.0,98,0.00,,,-99.99,,2013-02-21 21:02:00,
2013-02-21 14:11:00,16.0,15.0,-100.00,NW,315,11.0,14.0,97,0.01,,,-99.99,,2013-02-21 21:11:00,
2013-02-21 14:21:00,16.0,15.0,-100.00,NW,311,13.0,17.0,97,0.00,,,-99.99,,2013-02-21 21:21:00,
2013-02-21 14:31:00,16.0,15.0,-100.00,NW,312,13.0,16.0,97,0.00,,,-99.99,,2013-02-21 21:31:00,
2013-02-21 14:42:00,16.0,15.0,-100.00,NW,309,14.0,17.0,97,0.00,,,-99.99,,2013-02-21 21:42:00,
2013-02-21 14:51:00,15.0,15.0,-100.00,NW,308,17.0,19.0,96,0.00,,,-99.99,,2013-02-21 21:51:00,
2013-02-21 15:01:00,15.0,14.0,-100.00,NW,309,17.0,21.0,97,0.00,,,-99.99,,2013-02-21 22:01:00,
2013-02-21 15:11:00,15.0,14.0,-100.00,NW,313,17.0,22.0,97,0.00,,,-99.99,,2013-02-21 22:11:00,
2013-02-21 15:21:00,15.0,15.0,-100.00,NW,315,17.0,21.0,97,0.00,,,-99.99,,2013-02-21 22:21:00,
2013-02-21 15:31:00,15.0,14.0,-100.00,NW,308,19.0,24.0,96,0.00,,,-99.99,,2013-02-21 22:31:00,
2013-02-21 15:41:00,15.0,14.0,-100.00,NW,309,19.0,26.0,96,0.01,,,-99.99,,2013-02-21 22:41:00,
2013-02-21 15:52:00,15.0,14.0,-100.00,NW,306,18.0,23.0,96,0.00,,,-99.99,,2013-02-21 22:52:00,
2013-02-21 16:01:00,15.0,14.0,-100.00,NW,304,17.0,21.0,95,0.00,,,-99.99,,2013-02-21 23:01:00,
2013-02-21 16:11:00,15.0,14.0,-100.00,NW,306,17.0,21.0,95,0.00,,,-99.99,,2013-02-21 23:11:00,
2013-02-21 16:21:00,15.0,14.0,-100.00,NW,305,17.0,21.0,94,0.00,,,-99.99,,2013-02-21 23:21:00,
2013-02-21 16:32:00,15.0,14.0,-100.00,NW,308,18.0,23.0,94,0.00,,,-99.99,,2013-02-21 23:32:00,
2013-02-21 16:41:00,15.0,14.0,-100.00,WNW,302,18.0,24.0,93,0.00,,,-99.99,,2013-02-21 23:41:00,
2013-02-21 16:52:00,16.0,14.0,-100.00,WNW,295,16.0,21.0,91,0.00,,,-99.99,,2013-02-21 23:52:00,
2013-02-21 17:01:00,15.0,13.0,-100.00,WNW,292,17.0,25.0,90,0.00,,,-99.99,,2013-02-22 00:01:00,
2013-02-21 17:11:00,16.0,13.0,-100.00,WNW,294,18.0,23.0,89,0.00,,,-99.99,,2013-02-22 00:11:00,
2013-02-21 17:21:00,16.0,13.0,-100.00,WNW,288,18.0,24.0,87,0.00,,,-99.99,,2013-02-22 00:21:00,
2013-02-21 17:32:00,16.0,13.0,-100.00,WNW,282,17.0,25.0,88,0.00,,,-99.99,,2013-02-22 00:32:00,
2013-02-21 17:41:00,16.0,12.0,-100.00,West,281,16.0,25.0,87,0.00,,,-99.99,,2013-02-22 00:41:00,
2013-02-21 17:51:00,16.0,12.0,-100.00,WNW,288,15.0,21.0,86,0.00,,,-99.99,,2013-02-22 00:51:00,
2013-02-21 18:01:00,15.0,12.0,-100.00,WNW,284,12.0,19.0,86,0.00,,,-99.99,,2013-02-22 01:01:00,
2013-02-21 18:11:00,16.0,12.0,-100.00,WNW,282,14.0,20.0,85,0.00,,,-99.99,,2013-02-22 01:11:00,
2013-02-21 18:21:00,16.0,11.0,-100.00,West,280,15.0,25.0,83,0.00,,,-99.99,,2013-02-22 01:21:00,
2013-02-21 18:32:00,16.0,12.0,-100.00,West,277,15.0,22.0,84,0.00,,,-99.99,,2013-02-22 01:32:00,
2013-02-21 18:42:00,16.0,11.0,-100.00,West,280,14.0,19.0,84,0.00,,,-99.99,,2013-02-22 01:42:00,
2013-02-21 18:51:00,16.0,11.0,-100.00,West,281,15.0,25.0,83,0.00,,,-99.99,,2013-02-22 01:51:00,
2013-02-21 19:02:00,16.0,11.0,-100.00,WNW,282,16.0,21.0,83,0.00,,,-99.99,,2013-02-22 02:02:00,
2013-02-21 19:11:00,15.0,11.0,-100.00,West,281,13.0,21.0,83,0.00,,,-99.99,,2013-02-22 02:11:00,
2013-02-21 19:21:00,15.0,11.0,-100.00,West,280,12.0,17.0,82,0.00,,,-99.99,,2013-02-22 02:21:00,
2013-02-21 19:31:00,15.0,11.0,-100.00,West,278,12.0,19.0,82,0.00,,,-99.99,,2013-02-22 02:31:00,
2013-02-21 19:42:00,15.0,10.0,-100.00,West,267,15.0,22.0,81,0.00,,,-99.99,,2013-02-22 02:42:00,
2013-02-21 19:52:00,16.0,10.0,-100.00,West,268,15.0,21.0,79,0.00,,,-99.99,,2013-02-22 02:52:00,
2013-02-21 20:01:00,16.0,10.0,-100.00,West,263,17.0,22.0,78,0.00,,,-99.99,,2013-02-22 03:01:00,
2013-02-21 20:11:00,16.0,10.0,-100.00,WSW,258,18.0,23.0,76,0.00,,,-99.99,,2013-02-22 03:11:00,
2013-02-21 20:21:00,16.0,10.0,-100.00,WSW,258,17.0,24.0,76,0.00,,,-99.99,,2013-02-22 03:21:00,
2013-02-21 20:32:00,16.0,9.0,-100.00,WSW,257,18.0,24.0,74,0.00,,,-99.99,,2013-02-22 03:32:00,
2013-02-21 20:41:00,16.0,9.0,-100.00,WSW,251,17.0,21.0,74,0.00,,,-99.99,,2013-02-22 03:41:00,
2013-02-21 20:51:00,16.0,9.0,-100.00,WSW,244,17.0,23.0,75,0.00,,,-99.99,,2013-02-22 03:51:00,
2013-02-21 21:01:00,16.0,9.0,-100.00,WSW,247,14.0,19.0,74,0.00,,,-99.99,,2013-02-22 04:01:00,
2013-02-21 21:11:00,17.0,10.0,-100.00,WSW,256,15.0,22.0,74,0.00,,,-99.99,,2013-02-22 04:11:00,
2013-02-21 21:21:00,17.0,9.0,-100.00,WSW,258,16.0,22.0,74,0.00,,,-99.99,,2013-02-22 04:21:00,
2013-02-21 21:32:00,17.0,10.0,-100.00,West,264,16.0,24.0,74,0.00,,,-99.99,,2013-02-22 04:32:00,
2013-02-21 21:42:00,16.0,10.0,-100.00,West,264,16.0,22.0,75,0.00,,,-99.99,,2013-02-22 04:42:00,
2013-02-21 21:51:00,16.0,10.0,-100.00,West,261,17.0,24.0,74,0.00,,,-99.99,,2013-02-22 04:51:00,
2013-02-21 22:01:00,16.0,9.0,-100.00,West,270,15.0,21.0,75,0.00,,,-99.99,,2013-02-22 05:01:00,
2013-02-21 22:12:00,16.0,9.0,-100.00,West,261,16.0,22.0,74,0.00,,,-99.99,,2013-02-22 05:12:00,
2013-02-21 22:22:00,16.0,9.0,-100.00,West,260,15.0,23.0,75,0.00,,,-99.99,,2013-02-22 05:22:00,
2013-02-21 22:32:00,16.0,10.0,-100.00,West,260,15.0,20.0,75,0.00,,,-99.99,,2013-02-22 05:32:00,
2013-02-21 22:41:00,17.0,10.0,-100.00,WSW,258,14.0,19.0,75,0.00,,,-99.99,,2013-02-22 05:41:00,
2013-02-21 22:52:00,17.0,10.0,-100.00,West,260,14.0,19.0,75,0.00,,,-99.99,,2013-02-22 05:52:00,
2013-02-21 23:01:00,17.0,11.0,-100.00,WSW,257,14.0,19.0,76,0.00,,,-99.99,,2013-02-22 06:01:00,
2013-02-21 23:11:00,17.0,11.0,-100.00,WSW,256,16.0,21.0,76,0.00,,,-99.99,,2013-02-22 06:11:00,
2013-02-21 23:21:00,17.0,11.0,-100.00,WSW,257,13.0,19.0,78,0.00,,,-99.99,,2013-02-22 06:21:00,
2013-02-21 23:31:00,17.0,11.0,-100.00,West,260,12.0,17.0,78,0.00,,,-99.99,,2013-02-22 06:31:00,
2013-02-21 23:42:00,17.0,11.0,-100.00,West,261,13.0,21.0,78,0.00,,,-99.99,,2013-02-22 06:42:00,
2013-02-21 23:51:00,18.0,12.0,-100.00,West,263,16.0,21.0,77,0.00,,,-99.99,,2013-02-22 06:51:00,